Location: Amberg
(48.0613°N, 10.6820°E)
Time: 03:00:29
(UTC+00:00)

Cosmos 1812 - Pass Details

Date: 18 November 2025
Orbit: 344 x 354 km, 82.5° (Epoch: 04 December)

Event Time Altitude Azimuth Distance (km) Brightness Sun altitude
Rises 16:15:44 0° 154° (SSE) 2,225 5.9 -6.8°
Reaches altitude 10° 16:18:09 10° 133° (SE) 1,374 4.6 -7.2°
Maximum altitude 16:20:11 17° 90° (E) 1,033 3.7 -7.5°
Drops below altitude 10° 16:22:13 10° 46° (NE) 1,371 4.3 -7.9°
Enters shadow 16:22:33 - 42° (NE) 1,475 4.5 -7.9°
